Time,TemperatureF,DewpointF,PressureIn,WindDirection,WindDirectionDegrees,WindSpeedMPH,WindSpeedGustMPH,Humidity,HourlyPrecipIn,Conditions,Clouds,dailyrainin,SoftwareType,DateUTC
2012-01-21 00:01:00,46.2,46.2,29.89,SW,216,0.0,0.0,100,0.00,,,0.00,VWS V13.01,2012-01-21 06:01:00,
2012-01-21 00:06:00,46.2,46.2,29.89,WSW,237,0.0,0.0,100,0.00,,,0.00,VWS V13.01,2012-01-21 06:06:00,
2012-01-21 00:11:00,46.2,46.2,29.89,SW,221,0.0,0.0,100,0.00,,,0.00,VWS V13.01,2012-01-21 06:11:00,
2012-01-21 00:16:00,46.0,46.0,29.89,SW,221,0.0,0.0,100,0.00,,,0.00,VWS V13.01,2012-01-21 06:16:00,
2012-01-21 00:21:00,45.9,45.9,29.89,NNW,347,0.0,0.0,100,0.00,,,0.00,VWS V13.01,2012-01-21 06:21:00,
2012-01-21 00:26:00,45.9,45.9,29.89,North,353,0.0,0.0,100,0.00,,,0.00,VWS V13.01,2012-01-21 06:26:00,
2012-01-21 00:31:00,45.9,45.9,29.92,SSW,209,0.0,0.0,100,0.00,,,0.00,VWS V13.01,2012-01-21 06:31:00,
2012-01-21 00:36:00,45.9,45.9,29.92,SSW,209,0.0,0.0,100,0.00,,,0.00,VWS V13.01,2012-01-21 06:36:00,
2012-01-21 00:41:00,45.9,45.9,29.92,NW,319,3.1,3.1,100,0.00,,,0.00,VWS V13.01,2012-01-21 06:41:00,
2012-01-21 00:46:00,44.2,44.2,29.92,NNW,330,5.8,5.8,100,0.00,,,0.00,VWS V13.01,2012-01-21 06:46:00,
2012-01-21 00:51:00,44.4,44.4,29.92,North,349,3.1,3.1,100,0.00,,,0.00,VWS V13.01,2012-01-21 06:51:00,
2012-01-21 00:56:00,44.8,42.3,29.92,NW,325,3.6,4.0,91,0.00,,,0.00,VWS V13.01,2012-01-21 06:56:00,
2012-01-21 01:01:00,45.5,41.6,29.92,NNW,331,2.7,4.0,86,0.00,,,0.00,VWS V13.01,2012-01-21 07:01:00,
2012-01-21 01:06:00,45.5,41.6,29.92,NNW,347,2.7,2.7,86,0.00,,,0.00,VWS V13.01,2012-01-21 07:06:00,
2012-01-21 01:10:00,45.5,41.3,29.92,NNW,335,0.0,3.1,85,0.00,,,0.00,VWS V13.01,2012-01-21 07:10:00,
2012-01-21 01:15:00,45.3,41.4,29.92,NNW,341,0.0,0.0,86,0.00,,,0.00,VWS V13.01,2012-01-21 07:15:00,
2012-01-21 01:20:00,45.0,41.3,29.92,NNW,339,0.0,0.0,87,0.00,,,0.00,VWS V13.01,2012-01-21 07:20:00,
2012-01-21 01:26:00,44.6,41.3,29.92,NNW,339,0.0,0.0,88,0.00,,,0.00,VWS V13.01,2012-01-21 07:26:00,
2012-01-21 01:30:00,44.2,41.2,29.92,North,353,0.0,0.0,89,0.00,,,0.00,VWS V13.01,2012-01-21 07:30:00,
2012-01-21 01:36:00,44.1,41.0,29.92,NNW,331,5.4,5.4,89,0.00,,,0.00,VWS V13.01,2012-01-21 07:36:00,
2012-01-21 01:41:00,44.4,41.1,29.92,North,6,2.2,2.2,88,0.00,,,0.00,VWS V13.01,2012-01-21 07:41:00,
2012-01-21 01:46:00,44.1,41.0,29.92,NE,46,2.2,2.7,89,0.00,,,0.00,VWS V13.01,2012-01-21 07:46:00,
2012-01-21 01:51:00,43.9,40.8,29.92,NE,46,0.0,0.0,89,0.00,,,0.00,VWS V13.01,2012-01-21 07:51:00,
2012-01-21 01:56:00,43.7,41.0,29.92,NE,46,0.0,0.0,90,0.00,,,0.00,VWS V13.01,2012-01-21 07:56:00,
2012-01-21 02:01:00,43.5,40.8,29.92,NE,46,0.0,0.0,90,0.00,,,0.00,VWS V13.01,2012-01-21 08:01:00,
2012-01-21 02:06:00,43.3,40.6,29.92,NE,46,0.0,0.0,90,0.00,,,0.00,VWS V13.01,2012-01-21 08:06:00,
2012-01-21 02:11:00,43.0,40.2,29.92,NE,46,0.0,0.0,90,0.00,,,0.00,VWS V13.01,2012-01-21 08:11:00,
2012-01-21 02:16:00,42.8,40.4,29.92,NE,46,0.0,0.0,91,0.00,,,0.00,VWS V13.01,2012-01-21 08:16:00,
2012-01-21 02:21:00,42.4,40.3,29.92,West,271,0.0,0.0,92,0.00,,,0.00,VWS V13.01,2012-01-21 08:21:00,
2012-01-21 02:26:00,42.1,40.8,29.92,West,272,0.0,0.0,95,0.00,,,0.00,VWS V13.01,2012-01-21 08:26:00,
2012-01-21 02:31:00,41.5,40.5,29.95,WNW,292,0.0,0.0,96,0.00,,,0.00,VWS V13.01,2012-01-21 08:31:00,
2012-01-21 02:36:00,41.7,40.7,29.95,NW,304,0.0,0.0,96,0.00,,,0.00,VWS V13.01,2012-01-21 08:36:00,
2012-01-21 02:41:00,41.7,40.4,29.95,West,277,0.0,0.0,95,0.00,,,0.00,VWS V13.01,2012-01-21 08:41:00,
2012-01-21 02:46:00,41.7,39.6,29.95,NW,322,0.0,0.0,92,0.00,,,0.00,VWS V13.01,2012-01-21 08:46:00,
2012-01-21 02:51:00,42.3,39.8,29.95,WNW,299,0.0,2.2,91,0.00,,,0.00,VWS V13.01,2012-01-21 08:51:00,
2012-01-21 02:56:00,42.1,39.7,29.95,WNW,285,0.0,0.0,91,0.00,,,0.00,VWS V13.01,2012-01-21 08:56:00,
2012-01-21 03:01:00,42.1,39.7,29.95,WNW,286,0.0,0.0,91,0.00,,,0.00,VWS V13.01,2012-01-21 09:01:00,
2012-01-21 03:06:00,41.9,39.5,29.95,West,265,2.2,3.1,91,0.00,,,0.00,VWS V13.01,2012-01-21 09:06:00,
2012-01-21 03:11:00,41.5,39.4,29.95,West,259,2.7,3.1,92,0.00,,,0.00,VWS V13.01,2012-01-21 09:11:00,
2012-01-21 03:16:00,41.7,39.6,29.95,NW,311,2.2,3.1,92,0.00,,,0.00,VWS V13.01,2012-01-21 09:16:00,
2012-01-21 03:21:00,41.7,38.7,29.95,NNW,340,0.0,2.7,89,0.00,,,0.00,VWS V13.01,2012-01-21 09:21:00,
2012-01-21 03:26:00,41.5,37.7,29.95,NW,326,4.0,5.4,86,0.00,,,0.00,VWS V13.01,2012-01-21 09:26:00,
2012-01-21 03:31:00,41.9,35.9,29.98,West,270,10.1,10.1,79,0.00,,,0.00,VWS V13.01,2012-01-21 09:31:00,
2012-01-21 03:36:00,41.9,35.9,29.98,NW,321,4.0,6.3,79,0.00,,,0.00,VWS V13.01,2012-01-21 09:36:00,
2012-01-21 03:41:00,41.7,35.7,29.98,NW,316,2.7,3.1,79,0.00,,,0.00,VWS V13.01,2012-01-21 09:41:00,
2012-01-21 03:46:00,41.5,35.2,29.98,NNW,344,4.5,4.9,78,0.00,,,0.00,VWS V13.01,2012-01-21 09:46:00,
2012-01-21 03:51:00,41.4,34.4,29.98,North,354,5.4,5.4,76,0.00,,,0.00,VWS V13.01,2012-01-21 09:51:00,
2012-01-21 03:56:00,41.2,34.5,29.98,NNW,337,3.1,5.4,77,0.00,,,0.00,VWS V13.01,2012-01-21 09:56:00,
2012-01-21 04:01:00,40.6,34.3,29.98,NW,313,6.3,7.6,78,0.00,,,0.00,VWS V13.01,2012-01-21 10:01:00,
2012-01-21 04:06:00,40.3,33.7,29.98,NW,308,4.0,5.4,77,0.00,,,0.00,VWS V13.01,2012-01-21 10:06:00,
2012-01-21 04:11:00,39.9,33.6,29.98,NW,319,3.1,3.6,78,0.00,,,0.00,VWS V13.01,2012-01-21 10:11:00,
2012-01-21 04:16:00,39.6,33.9,29.98,NW,314,6.3,6.3,80,0.00,,,0.00,VWS V13.01,2012-01-21 10:16:00,
2012-01-21 04:21:00,39.4,33.7,29.98,WNW,300,7.6,8.7,80,0.00,,,0.00,VWS V13.01,2012-01-21 10:21:00,
2012-01-21 04:26:00,39.2,33.6,29.98,NW,319,6.3,8.7,80,0.00,,,0.00,VWS V13.01,2012-01-21 10:26:00,
2012-01-21 04:31:00,39.0,33.7,29.98,NW,318,4.0,4.9,81,0.00,,,0.00,VWS V13.01,2012-01-21 10:31:00,
2012-01-21 04:36:00,38.8,33.5,29.98,NNW,333,4.0,4.9,81,0.00,,,0.00,VWS V13.01,2012-01-21 10:36:00,
2012-01-21 04:41:00,38.5,33.5,29.98,NNW,333,3.1,4.0,82,0.00,,,0.00,VWS V13.01,2012-01-21 10:41:00,
2012-01-21 04:46:00,38.3,33.6,29.98,North,3,3.1,4.0,83,0.00,,,0.00,VWS V13.01,2012-01-21 10:46:00,
2012-01-21 04:51:00,37.9,33.5,29.98,NNE,15,4.0,4.9,84,0.00,,,0.00,VWS V13.01,2012-01-21 10:51:00,
2012-01-21 04:56:00,37.8,33.4,29.98,NNW,341,2.7,3.6,84,0.00,,,0.00,VWS V13.01,2012-01-21 10:56:00,
2012-01-21 05:01:00,37.6,33.2,29.98,North,352,5.4,5.4,84,0.00,,,0.00,VWS V13.01,2012-01-21 11:01:00,
2012-01-21 05:06:00,37.4,33.3,29.98,NNE,14,3.6,4.0,85,0.00,,,0.00,VWS V13.01,2012-01-21 11:06:00,
2012-01-21 05:11:00,37.2,33.4,29.98,North,7,3.6,4.0,86,0.00,,,0.00,VWS V13.01,2012-01-21 11:11:00,
2012-01-21 05:16:00,37.0,33.0,29.98,North,4,2.7,4.0,85,0.00,,,0.00,VWS V13.01,2012-01-21 11:16:00,
2012-01-21 05:21:00,36.9,33.1,29.98,NNE,33,3.6,4.0,86,0.00,,,0.00,VWS V13.01,2012-01-21 11:21:00,
2012-01-21 05:26:00,36.7,33.2,29.98,NE,35,3.6,4.0,87,0.00,,,0.00,VWS V13.01,2012-01-21 11:26:00,
2012-01-21 05:31:00,36.7,33.5,29.98,NNE,31,3.6,4.0,88,0.00,,,0.00,VWS V13.01,2012-01-21 11:31:00,
2012-01-21 05:36:00,36.5,32.7,29.98,North,4,2.7,2.7,86,0.00,,,0.00,VWS V13.01,2012-01-21 11:36:00,
2012-01-21 05:41:00,36.3,32.5,29.98,NNE,13,3.1,3.6,86,0.00,,,0.00,VWS V13.01,2012-01-21 11:41:00,
2012-01-21 05:46:00,36.3,32.5,29.98,North,360,0.0,2.2,86,0.00,,,0.00,VWS V13.01,2012-01-21 11:46:00,
2012-01-21 05:51:00,36.3,32.2,29.98,NNW,330,3.6,3.6,85,0.00,,,0.00,VWS V13.01,2012-01-21 11:51:00,
2012-01-21 05:56:00,36.1,32.1,29.98,NW,324,2.7,3.6,85,0.00,,,0.00,VWS V13.01,2012-01-21 11:56:00,
2012-01-21 06:01:00,36.1,31.8,30.01,NNW,328,6.3,6.3,84,0.00,,,0.00,VWS V13.01,2012-01-21 12:01:00,
2012-01-21 06:06:00,36.1,31.5,30.01,NW,326,5.4,5.4,83,0.00,,,0.00,VWS V13.01,2012-01-21 12:06:00,
2012-01-21 06:11:00,36.1,31.5,30.01,WNW,286,5.4,5.4,83,0.00,,,0.00,VWS V13.01,2012-01-21 12:11:00,
2012-01-21 06:15:00,36.1,31.2,30.03,NNE,21,3.1,3.1,82,0.00,,,0.00,VWS V13.01,2012-01-21 12:15:00,
2012-01-21 06:20:00,36.0,31.0,30.03,North,353,2.2,3.1,82,0.00,,,0.00,VWS V13.01,2012-01-21 12:20:00,
2012-01-21 06:25:00,35.8,30.8,30.03,WNW,297,0.0,2.7,82,0.00,,,0.00,VWS V13.01,2012-01-21 12:25:00,
2012-01-21 06:31:00,35.6,31.0,30.03,West,263,2.7,2.7,83,0.00,,,0.00,VWS V13.01,2012-01-21 12:31:00,
2012-01-21 06:36:00,35.4,31.4,30.03,WNW,297,3.1,4.0,85,0.00,,,0.00,VWS V13.01,2012-01-21 12:36:00,
2012-01-21 06:41:00,35.4,31.1,30.03,NW,312,3.6,4.0,84,0.00,,,0.00,VWS V13.01,2012-01-21 12:41:00,
2012-01-21 06:46:00,35.4,31.1,30.03,WNW,294,2.7,4.0,84,0.00,,,0.00,VWS V13.01,2012-01-21 12:46:00,
2012-01-21 06:51:00,35.4,30.8,30.03,North,350,0.0,2.2,83,0.00,,,0.00,VWS V13.01,2012-01-21 12:51:00,
2012-01-21 06:56:00,35.2,30.6,30.03,WNW,302,0.0,0.0,83,0.00,,,0.00,VWS V13.01,2012-01-21 12:56:00,
2012-01-21 07:01:00,35.1,30.7,30.03,WNW,303,0.0,0.0,84,0.00,,,0.00,VWS V13.01,2012-01-21 13:01:00,
2012-01-21 07:06:00,34.9,30.5,30.03,NW,316,0.0,0.0,84,0.00,,,0.00,VWS V13.01,2012-01-21 13:06:00,
2012-01-21 07:11:00,34.7,30.7,30.03,NW,316,0.0,0.0,85,0.00,,,0.00,VWS V13.01,2012-01-21 13:11:00,
2012-01-21 07:16:00,34.7,30.4,30.03,North,350,0.0,3.6,84,0.00,,,0.00,VWS V13.01,2012-01-21 13:16:00,
2012-01-21 07:21:00,34.9,30.5,30.03,North,5,0.0,0.0,84,0.00,,,0.00,VWS V13.01,2012-01-21 13:21:00,
2012-01-21 07:26:00,34.5,29.9,30.03,North,359,0.0,0.0,83,0.00,,,0.00,VWS V13.01,2012-01-21 13:26:00,
2012-01-21 07:31:00,34.5,30.2,30.06,NW,313,2.7,3.6,84,0.00,,,0.00,VWS V13.01,2012-01-21 13:31:00,
2012-01-21 07:36:00,34.5,30.2,30.06,WNW,301,2.7,3.1,84,0.00,,,0.00,VWS V13.01,2012-01-21 13:36:00,
2012-01-21 07:41:00,34.5,30.2,30.06,NW,326,0.0,2.2,84,0.00,,,0.00,VWS V13.01,2012-01-21 13:41:00,
2012-01-21 07:46:00,34.5,30.8,30.06,NNW,328,0.0,0.0,86,0.00,,,0.00,VWS V13.01,2012-01-21 13:46:00,
2012-01-21 07:51:00,34.3,30.3,30.06,NNW,329,0.0,0.0,85,0.00,,,0.00,VWS V13.01,2012-01-21 13:51:00,
2012-01-21 07:56:00,34.2,30.1,30.06,NNW,348,0.0,0.0,85,0.00,,,0.00,VWS V13.01,2012-01-21 13:56:00,
2012-01-21 08:01:00,34.2,30.4,30.06,North,1,0.0,0.0,86,0.00,,,0.00,VWS V13.01,2012-01-21 14:01:00,
2012-01-21 08:06:00,34.2,30.4,30.06,NNE,12,0.0,0.0,86,0.00,,,0.00,VWS V13.01,2012-01-21 14:06:00,
2012-01-21 08:11:00,34.2,30.4,30.06,NNE,23,3.1,4.0,86,0.00,,,0.00,VWS V13.01,2012-01-21 14:11:00,
2012-01-21 08:16:00,34.3,30.6,30.06,NNE,17,2.7,2.7,86,0.00,,,0.00,VWS V13.01,2012-01-21 14:16:00,
2012-01-21 08:21:00,34.9,30.5,30.06,NE,38,3.6,4.9,84,0.00,,,0.00,VWS V13.01,2012-01-21 14:21:00,
2012-01-21 08:26:00,35.1,30.4,30.06,NE,40,4.0,4.0,83,0.00,,,0.00,VWS V13.01,2012-01-21 14:26:00,
2012-01-21 08:31:00,35.1,30.1,30.06,NE,34,3.1,4.0,82,0.00,,,0.00,VWS V13.01,2012-01-21 14:31:00,
2012-01-21 08:36:00,35.2,30.6,30.06,NNE,28,3.1,4.0,83,0.00,,,0.00,VWS V13.01,2012-01-21 14:36:00,
2012-01-21 08:41:00,35.2,30.3,30.06,NNE,29,3.6,4.0,82,0.00,,,0.00,VWS V13.01,2012-01-21 14:41:00,
2012-01-21 08:46:00,35.4,30.5,30.06,NE,36,6.3,6.3,82,0.00,,,0.00,VWS V13.01,2012-01-21 14:46:00,
2012-01-21 08:51:00,35.8,30.8,30.06,NNE,22,5.4,5.4,82,0.00,,,0.00,VWS V13.01,2012-01-21 14:51:00,
2012-01-21 08:56:00,36.0,29.5,30.06,NE,39,5.8,8.7,77,0.00,,,0.00,VWS V13.01,2012-01-21 14:56:00,
2012-01-21 09:01:00,36.3,30.4,30.06,NNE,13,2.7,4.9,79,0.00,,,0.00,VWS V13.01,2012-01-21 15:01:00,
2012-01-21 09:06:00,36.5,30.3,30.06,NNE,14,3.6,5.8,78,0.00,,,0.00,VWS V13.01,2012-01-21 15:06:00,
2012-01-21 09:11:00,36.9,29.7,30.06,NNE,26,5.4,6.7,75,0.00,,,0.00,VWS V13.01,2012-01-21 15:11:00,
2012-01-21 09:16:00,37.0,29.2,30.06,NE,44,10.1,10.1,73,0.00,,,0.00,VWS V13.01,2012-01-21 15:16:00,
2012-01-21 09:21:00,37.2,29.0,30.06,NE,45,6.3,8.1,72,0.00,,,0.00,VWS V13.01,2012-01-21 15:21:00,
2012-01-21 09:26:00,37.2,28.4,30.06,NNE,23,6.3,8.1,70,0.00,,,0.00,VWS V13.01,2012-01-21 15:26:00,
2012-01-21 09:31:00,37.6,29.0,30.06,NNE,30,5.8,5.8,71,0.00,,,0.00,VWS V13.01,2012-01-21 15:31:00,
2012-01-21 09:36:00,38.1,28.5,30.06,NNE,21,8.3,8.3,68,0.00,,,0.00,VWS V13.01,2012-01-21 15:36:00,
2012-01-21 09:41:00,37.9,28.3,30.06,NE,35,4.9,5.4,68,0.00,,,0.00,VWS V13.01,2012-01-21 15:41:00,
2012-01-21 09:46:00,37.9,28.3,30.06,North,359,4.0,8.1,68,0.00,,,0.00,VWS V13.01,2012-01-21 15:46:00,
2012-01-21 09:51:00,37.8,27.8,30.06,NNE,28,5.8,5.8,67,0.00,,,0.00,VWS V13.01,2012-01-21 15:51:00,
2012-01-21 09:56:00,37.9,28.0,30.06,NNW,330,2.7,3.6,67,0.00,,,0.00,VWS V13.01,2012-01-21 15:56:00,
2012-01-21 10:01:00,38.5,28.5,30.09,NNE,18,3.6,5.4,67,0.00,,,0.00,VWS V13.01,2012-01-21 16:01:00,
2012-01-21 10:06:00,38.8,28.5,30.09,North,349,3.1,3.1,66,0.00,,,0.00,VWS V13.01,2012-01-21 16:06:00,
2012-01-21 10:11:00,39.6,29.1,30.09,ESE,103,3.1,4.0,66,0.00,,,0.00,VWS V13.01,2012-01-21 16:11:00,
2012-01-21 10:16:00,40.1,28.1,30.09,NNE,15,0.0,0.0,62,0.00,,,0.00,VWS V13.01,2012-01-21 16:16:00,
2012-01-21 10:21:00,40.3,29.1,30.09,NNW,333,2.7,3.1,64,0.00,,,0.00,VWS V13.01,2012-01-21 16:21:00,
2012-01-21 10:26:00,40.6,28.3,30.09,NNE,12,5.4,5.4,61,0.00,,,0.00,VWS V13.01,2012-01-21 16:26:00,
2012-01-21 10:31:00,40.3,28.3,30.09,ENE,62,4.0,4.0,62,0.00,,,0.00,VWS V13.01,2012-01-21 16:31:00,
2012-01-21 10:36:00,40.5,28.1,30.09,NE,42,6.3,6.3,61,0.00,,,0.00,VWS V13.01,2012-01-21 16:36:00,
2012-01-21 10:41:00,40.6,28.3,30.09,ENE,65,5.8,7.6,61,0.00,,,0.00,VWS V13.01,2012-01-21 16:41:00,
2012-01-21 10:46:00,41.0,28.2,30.09,ENE,69,4.9,5.4,60,0.00,,,0.00,VWS V13.01,2012-01-21 16:46:00,
2012-01-21 10:51:00,41.0,29.0,30.09,NE,36,6.3,6.3,62,0.00,,,0.00,VWS V13.01,2012-01-21 16:51:00,
2012-01-21 10:56:00,41.2,28.8,30.09,ESE,102,2.7,2.7,61,0.00,,,0.00,VWS V13.01,2012-01-21 16:56:00,
2012-01-21 11:01:00,41.7,28.0,30.09,NE,39,6.3,8.3,58,0.00,,,0.00,VWS V13.01,2012-01-21 17:01:00,
2012-01-21 11:06:00,41.4,27.7,30.09,East,87,4.9,8.1,58,0.00,,,0.00,VWS V13.01,2012-01-21 17:06:00,
2012-01-21 11:11:00,41.5,27.9,30.09,SSE,168,4.9,4.9,58,0.00,,,0.00,VWS V13.01,2012-01-21 17:11:00,
2012-01-21 11:16:00,41.7,28.0,30.09,ENE,73,5.4,6.3,58,0.00,,,0.00,VWS V13.01,2012-01-21 17:16:00,
2012-01-21 11:21:00,41.9,27.8,30.09,ESE,113,3.1,6.3,57,0.00,,,0.00,VWS V13.01,2012-01-21 17:21:00,
2012-01-21 11:26:00,41.7,28.0,30.09,ENE,57,6.3,6.3,58,0.00,,,0.00,VWS V13.01,2012-01-21 17:26:00,
2012-01-21 11:31:00,41.9,27.8,30.09,ESE,114,4.9,5.4,57,0.00,,,0.00,VWS V13.01,2012-01-21 17:31:00,
2012-01-21 11:36:00,41.9,27.8,30.09,East,98,6.3,8.7,57,0.00,,,0.00,VWS V13.01,2012-01-21 17:36:00,
2012-01-21 11:41:00,41.7,27.6,30.09,East,80,4.0,7.6,57,0.00,,,0.00,VWS V13.01,2012-01-21 17:41:00,
2012-01-21 11:46:00,41.7,27.6,30.09,ESE,114,5.4,5.8,57,0.00,,,0.00,VWS V13.01,2012-01-21 17:46:00,
2012-01-21 11:51:00,42.3,28.1,30.09,NE,46,6.3,6.3,57,0.00,,,0.00,VWS V13.01,2012-01-21 17:51:00,
2012-01-21 11:56:00,42.3,27.7,30.09,NNE,26,5.4,5.4,56,0.00,,,0.00,VWS V13.01,2012-01-21 17:56:00,
2012-01-21 12:01:00,42.8,28.2,30.09,East,79,6.3,6.3,56,0.00,,,0.00,VWS V13.01,2012-01-21 18:01:00,
2012-01-21 12:06:00,43.0,28.4,30.09,SE,139,2.2,2.2,56,0.00,,,0.00,VWS V13.01,2012-01-21 18:06:00,
2012-01-21 12:11:00,43.7,28.6,30.09,NE,35,3.1,3.1,55,0.00,,,0.00,VWS V13.01,2012-01-21 18:11:00,
2012-01-21 12:16:00,43.5,28.4,30.06,East,87,4.0,6.3,55,0.00,,,0.00,VWS V13.01,2012-01-21 18:16:00,
2012-01-21 12:21:00,43.3,28.3,30.06,NE,43,5.4,6.3,55,0.00,,,0.00,VWS V13.01,2012-01-21 18:21:00,
2012-01-21 12:26:00,43.5,28.4,30.06,ESE,116,5.8,5.8,55,0.00,,,0.00,VWS V13.01,2012-01-21 18:26:00,
2012-01-21 12:31:00,43.7,28.6,30.06,SSE,163,3.1,3.1,55,0.00,,,0.00,VWS V13.01,2012-01-21 18:31:00,
2012-01-21 12:36:00,44.4,29.3,30.06,East,80,7.6,7.6,55,0.00,,,0.00,VWS V13.01,2012-01-21 18:36:00,
2012-01-21 12:41:00,44.6,29.0,30.06,NE,55,6.3,6.3,54,0.00,,,0.00,VWS V13.01,2012-01-21 18:41:00,
2012-01-21 12:46:00,44.6,29.0,30.03,NE,55,3.6,5.4,54,0.00,,,0.00,VWS V13.01,2012-01-21 18:46:00,
2012-01-21 12:47:00,44.6,29.0,30.03,East,79,3.6,3.6,54,0.00,,,0.00,VWS V13.01,2012-01-21 18:47:00,
2012-01-21 12:52:00,45.5,29.8,30.03,NE,49,5.4,5.8,54,0.00,,,0.00,VWS V13.01,2012-01-21 18:52:00,
2012-01-21 12:57:00,45.7,30.0,30.03,NE,41,2.7,3.1,54,0.00,,,0.00,VWS V13.01,2012-01-21 18:57:00,
2012-01-21 13:02:00,45.9,30.2,30.03,NNE,26,4.9,5.4,54,0.00,,,0.00,VWS V13.01,2012-01-21 19:02:00,
2012-01-21 13:07:00,45.9,30.2,30.03,NNE,24,3.1,3.1,54,0.00,,,0.00,VWS V13.01,2012-01-21 19:07:00,
2012-01-21 13:12:00,45.9,29.7,30.03,ENE,78,2.7,3.1,53,0.00,,,0.00,VWS V13.01,2012-01-21 19:12:00,
2012-01-21 13:17:00,45.9,30.2,30.03,ENE,76,4.9,4.9,54,0.00,,,0.00,VWS V13.01,2012-01-21 19:17:00,
2012-01-21 13:22:00,45.7,30.0,30.03,SE,143,3.1,3.1,54,0.00,,,0.00,VWS V13.01,2012-01-21 19:22:00,
2012-01-21 13:27:00,46.2,30.5,30.03,SE,124,5.4,5.4,54,0.00,,,0.00,VWS V13.01,2012-01-21 19:27:00,
2012-01-21 13:32:00,46.9,30.7,30.03,East,91,4.9,4.9,53,0.00,,,0.00,VWS V13.01,2012-01-21 19:32:00,
2012-01-21 13:37:00,46.8,30.5,30.03,South,170,7.6,8.7,53,0.00,,,0.00,VWS V13.01,2012-01-21 19:37:00,
2012-01-21 13:42:00,46.0,30.3,30.03,East,89,2.7,2.7,54,0.00,,,0.00,VWS V13.01,2012-01-21 19:42:00,
2012-01-21 13:47:00,46.0,30.3,30.03,South,173,4.9,6.3,54,0.00,,,0.00,VWS V13.01,2012-01-21 19:47:00,
2012-01-21 13:52:00,45.9,30.2,30.03,South,184,5.8,5.8,54,0.00,,,0.00,VWS V13.01,2012-01-21 19:52:00,
2012-01-21 13:57:00,46.0,30.3,30.03,SE,133,2.7,3.1,54,0.00,,,0.00,VWS V13.01,2012-01-21 19:57:00,
2012-01-21 14:02:00,46.6,30.8,30.03,ESE,109,3.6,3.6,54,0.00,,,0.00,VWS V13.01,2012-01-21 20:02:00,
2012-01-21 14:07:00,46.4,30.2,30.03,WSW,237,2.2,2.2,53,0.00,,,0.00,VWS V13.01,2012-01-21 20:07:00,
2012-01-21 14:12:00,46.4,30.2,30.03,ENE,62,2.2,2.2,53,0.00,,,0.00,VWS V13.01,2012-01-21 20:12:00,
2012-01-21 14:17:00,47.1,30.9,30.03,East,84,3.1,4.0,53,0.00,,,0.00,VWS V13.01,2012-01-21 20:17:00,
2012-01-21 14:22:00,47.8,31.5,30.03,SE,128,3.6,3.6,53,0.00,,,0.00,VWS V13.01,2012-01-21 20:22:00,
2012-01-21 14:27:00,48.0,31.2,30.03,East,83,4.0,6.3,52,0.00,,,0.00,VWS V13.01,2012-01-21 20:27:00,
2012-01-21 14:32:00,47.8,31.5,30.03,South,173,6.3,6.3,53,0.00,,,0.00,VWS V13.01,2012-01-21 20:32:00,
2012-01-21 14:37:00,47.8,31.1,30.03,NE,54,5.4,6.3,52,0.00,,,0.00,VWS V13.01,2012-01-21 20:37:00,
2012-01-21 14:42:00,47.8,31.5,30.03,ENE,78,5.4,5.4,53,0.00,,,0.00,VWS V13.01,2012-01-21 20:42:00,
2012-01-21 14:47:00,47.5,31.2,30.01,SE,139,6.7,6.7,53,0.00,,,0.00,VWS V13.01,2012-01-21 20:47:00,
2012-01-21 14:52:00,47.1,30.9,30.01,ENE,70,6.3,7.2,53,0.00,,,0.00,VWS V13.01,2012-01-21 20:52:00,
2012-01-21 14:57:00,47.1,30.9,30.01,SE,127,6.7,6.7,53,0.00,,,0.00,VWS V13.01,2012-01-21 20:57:00,
2012-01-21 15:02:00,47.1,30.9,30.01,ENE,75,3.6,3.6,53,0.00,,,0.00,VWS V13.01,2012-01-21 21:02:00,
2012-01-21 15:07:00,46.9,31.2,30.01,ESE,118,3.6,3.6,54,0.00,,,0.00,VWS V13.01,2012-01-21 21:07:00,
2012-01-21 15:12:00,47.3,31.5,30.01,SE,132,5.8,5.8,54,0.00,,,0.00,VWS V13.01,2012-01-21 21:12:00,
2012-01-21 15:17:00,47.3,31.0,30.01,SE,127,2.7,5.8,53,0.00,,,0.00,VWS V13.01,2012-01-21 21:17:00,
2012-01-21 15:22:00,47.1,30.9,30.01,ESE,121,8.1,8.1,53,0.00,,,0.00,VWS V13.01,2012-01-21 21:22:00,
2012-01-21 15:27:00,46.8,31.0,30.01,SE,143,6.3,6.3,54,0.00,,,0.00,VWS V13.01,2012-01-21 21:27:00,
2012-01-21 15:32:00,46.4,30.7,30.01,ESE,111,8.3,8.3,54,0.00,,,0.00,VWS V13.01,2012-01-21 21:32:00,
2012-01-21 15:37:00,46.0,30.8,30.01,ESE,111,4.9,6.3,55,0.00,,,0.00,VWS V13.01,2012-01-21 21:37:00,
2012-01-21 15:42:00,46.4,31.1,30.01,SE,127,6.3,6.3,55,0.00,,,0.00,VWS V13.01,2012-01-21 21:42:00,
2012-01-21 15:47:00,46.2,31.0,30.01,SSE,154,4.5,9.2,55,0.00,,,0.00,VWS V13.01,2012-01-21 21:47:00,
2012-01-21 15:52:00,46.0,30.8,30.01,ESE,117,5.8,5.8,55,0.00,,,0.00,VWS V13.01,2012-01-21 21:52:00,
2012-01-21 15:57:00,45.5,30.3,30.01,SSE,162,5.4,5.4,55,0.00,,,0.00,VWS V13.01,2012-01-21 21:57:00,
2012-01-21 16:02:00,45.1,30.4,29.98,ESE,115,5.4,5.4,56,0.00,,,0.00,VWS V13.01,2012-01-21 22:02:00,
2012-01-21 16:07:00,45.1,30.4,29.98,SE,124,8.7,8.7,56,0.00,,,0.00,VWS V13.01,2012-01-21 22:07:00,
2012-01-21 16:12:00,45.1,30.8,29.98,SE,124,4.0,5.8,57,0.00,,,0.00,VWS V13.01,2012-01-21 22:12:00,
2012-01-21 16:17:00,45.1,30.4,29.98,SE,125,8.1,8.1,56,0.00,,,0.00,VWS V13.01,2012-01-21 22:17:00,
2012-01-21 16:22:00,44.8,30.1,29.98,ESE,119,6.3,6.3,56,0.00,,,0.00,VWS V13.01,2012-01-21 22:22:00,
2012-01-21 16:27:00,44.4,30.6,29.98,SE,134,3.6,3.6,58,0.00,,,0.00,VWS V13.01,2012-01-21 22:27:00,
2012-01-21 16:32:00,44.4,30.6,29.98,ESE,121,7.6,7.6,58,0.00,,,0.00,VWS V13.01,2012-01-21 22:32:00,
2012-01-21 16:37:00,43.9,30.5,29.98,SE,124,5.4,6.3,59,0.00,,,0.00,VWS V13.01,2012-01-21 22:37:00,
2012-01-21 16:42:00,43.5,30.2,29.98,ESE,120,7.6,7.6,59,0.00,,,0.00,VWS V13.01,2012-01-21 22:42:00,
2012-01-21 16:47:00,43.3,30.4,29.98,ESE,121,3.6,3.6,60,0.00,,,0.00,VWS V13.01,2012-01-21 22:47:00,
2012-01-21 16:52:00,43.0,30.5,29.98,ESE,119,6.3,8.3,61,0.00,,,0.00,VWS V13.01,2012-01-21 22:52:00,
2012-01-21 16:57:00,42.8,30.7,29.98,ESE,119,5.8,5.8,62,0.00,,,0.00,VWS V13.01,2012-01-21 22:57:00,
2012-01-21 17:02:00,42.4,30.4,29.98,East,91,4.0,4.9,62,0.00,,,0.00,VWS V13.01,2012-01-21 23:02:00,
2012-01-21 17:07:00,42.1,30.4,29.98,ESE,108,5.8,5.8,63,0.00,,,0.00,VWS V13.01,2012-01-21 23:07:00,
2012-01-21 17:12:00,41.9,30.2,29.98,East,85,3.6,4.9,63,0.00,,,0.00,VWS V13.01,2012-01-21 23:12:00,
2012-01-21 17:17:00,41.5,30.3,29.98,ENE,75,3.1,3.6,64,0.00,,,0.00,VWS V13.01,2012-01-21 23:17:00,
2012-01-21 17:22:00,41.2,29.9,29.98,ESE,102,8.3,8.3,64,0.00,,,0.00,VWS V13.01,2012-01-21 23:22:00,
2012-01-21 17:27:00,41.0,30.1,29.98,ESE,116,5.4,7.6,65,0.00,,,0.00,VWS V13.01,2012-01-21 23:27:00,
2012-01-21 17:32:00,40.6,29.8,29.98,ENE,77,5.4,5.8,65,0.00,,,0.00,VWS V13.01,2012-01-21 23:32:00,
2012-01-21 17:37:00,40.5,30.0,29.98,East,96,4.0,5.4,66,0.00,,,0.00,VWS V13.01,2012-01-21 23:37:00,
2012-01-21 17:42:00,40.1,29.7,29.98,ESE,117,5.4,8.3,66,0.00,,,0.00,VWS V13.01,2012-01-21 23:42:00,
2012-01-21 17:47:00,39.9,29.9,29.98,East,94,4.9,4.9,67,0.00,,,0.00,VWS V13.01,2012-01-21 23:47:00,
2012-01-21 17:52:00,39.7,29.7,29.98,SE,127,6.3,8.1,67,0.00,,,0.00,VWS V13.01,2012-01-21 23:52:00,
2012-01-21 17:57:00,39.6,29.9,29.98,East,90,4.0,6.3,68,0.00,,,0.00,VWS V13.01,2012-01-21 23:57:00,
2012-01-21 18:02:00,39.2,29.5,29.98,East,100,5.4,5.4,68,0.00,,,0.00,VWS V13.01,2012-01-22 00:02:00,
2012-01-21 18:07:00,39.0,29.7,29.98,ENE,74,5.4,5.4,69,0.00,,,0.00,VWS V13.01,2012-01-22 00:07:00,
2012-01-21 18:12:00,38.8,29.9,29.98,ESE,102,3.6,4.0,70,0.00,,,0.00,VWS V13.01,2012-01-22 00:12:00,
2012-01-21 18:17:00,38.8,29.9,29.98,ESE,118,3.6,5.8,70,0.00,,,0.00,VWS V13.01,2012-01-22 00:17:00,
2012-01-21 18:22:00,38.7,29.7,29.98,East,88,2.7,6.3,70,0.00,,,0.00,VWS V13.01,2012-01-22 00:22:00,
2012-01-21 18:27:00,38.7,30.1,29.98,NE,51,3.6,3.6,71,0.00,,,0.00,VWS V13.01,2012-01-22 00:27:00,
2012-01-21 18:32:00,38.7,30.1,30.01,East,97,6.3,6.3,71,0.00,,,0.00,VWS V13.01,2012-01-22 00:32:00,
2012-01-21 18:37:00,38.5,29.9,30.01,ENE,72,3.6,3.6,71,0.00,,,0.00,VWS V13.01,2012-01-22 00:37:00,
2012-01-21 18:42:00,38.5,29.9,30.01,ENE,76,5.8,7.6,71,0.00,,,0.00,VWS V13.01,2012-01-22 00:42:00,
2012-01-21 18:47:00,38.3,29.7,30.01,ENE,75,5.4,6.3,71,0.00,,,0.00,VWS V13.01,2012-01-22 00:47:00,
2012-01-21 18:52:00,38.3,29.7,30.01,ENE,71,5.8,6.7,71,0.00,,,0.00,VWS V13.01,2012-01-22 00:52:00,
2012-01-21 18:57:00,38.1,29.6,30.01,ENE,58,2.7,3.1,71,0.00,,,0.00,VWS V13.01,2012-01-22 00:57:00,
2012-01-21 19:02:00,37.9,29.0,30.01,ENE,58,3.6,4.0,70,0.00,,,0.00,VWS V13.01,2012-01-22 01:02:00,
2012-01-21 19:07:00,37.9,29.0,30.01,ENE,78,4.5,4.5,70,0.00,,,0.00,VWS V13.01,2012-01-22 01:07:00,
2012-01-21 19:12:00,37.8,28.9,30.01,ENE,68,2.7,2.7,70,0.00,,,0.00,VWS V13.01,2012-01-22 01:12:00,
2012-01-21 19:17:00,37.6,28.7,30.01,ENE,68,2.7,2.7,70,0.00,,,0.00,VWS V13.01,2012-01-22 01:17:00,
2012-01-21 19:22:00,37.4,28.5,30.01,NE,53,2.7,2.7,70,0.00,,,0.00,VWS V13.01,2012-01-22 01:22:00,
2012-01-21 19:27:00,37.2,28.7,30.01,ENE,72,4.0,4.0,71,0.00,,,0.00,VWS V13.01,2012-01-22 01:27:00,
2012-01-21 19:32:00,37.2,28.7,30.01,NE,51,3.1,5.4,71,0.00,,,0.00,VWS V13.01,2012-01-22 01:32:00,
2012-01-21 19:37:00,37.4,28.5,30.01,ENE,66,4.9,4.9,70,0.00,,,0.00,VWS V13.01,2012-01-22 01:37:00,
2012-01-21 19:42:00,37.4,28.5,30.01,NE,37,4.0,4.0,70,0.00,,,0.00,VWS V13.01,2012-01-22 01:42:00,
2012-01-21 19:47:00,37.0,28.9,30.01,NNE,33,4.9,4.9,72,0.00,,,0.00,VWS V13.01,2012-01-22 01:47:00,
2012-01-21 19:52:00,36.9,29.0,30.01,NNE,26,4.0,4.0,73,0.00,,,0.00,VWS V13.01,2012-01-22 01:52:00,
2012-01-21 19:57:00,36.7,28.9,30.01,NNE,30,4.0,4.0,73,0.00,,,0.00,VWS V13.01,2012-01-22 01:57:00,
2012-01-21 20:02:00,36.5,29.0,29.98,NE,46,2.7,2.7,74,0.00,,,0.00,VWS V13.01,2012-01-22 02:02:00,
2012-01-21 20:07:00,36.3,28.8,29.98,NNE,33,2.7,2.7,74,0.00,,,0.00,VWS V13.01,2012-01-22 02:07:00,
2012-01-21 20:12:00,36.1,28.7,29.98,NNE,16,2.7,2.7,74,0.00,,,0.00,VWS V13.01,2012-01-22 02:12:00,
2012-01-21 20:17:00,36.1,28.7,29.98,NNE,23,4.0,4.0,74,0.00,,,0.00,VWS V13.01,2012-01-22 02:17:00,
2012-01-21 20:22:00,36.0,28.8,29.98,NE,48,0.0,0.0,75,0.00,,,0.00,VWS V13.01,2012-01-22 02:22:00,
2012-01-21 20:27:00,36.0,29.1,29.98,NE,48,0.0,0.0,76,0.00,,,0.00,VWS V13.01,2012-01-22 02:27:00,
2012-01-21 20:32:00,36.0,29.5,30.01,NE,48,0.0,0.0,77,0.00,,,0.00,VWS V13.01,2012-01-22 02:32:00,
2012-01-21 20:37:00,36.1,30.0,30.01,NNE,12,2.7,2.7,78,0.00,,,0.00,VWS V13.01,2012-01-22 02:37:00,
2012-01-21 20:42:00,36.3,30.1,30.01,North,7,3.1,3.1,78,0.00,,,0.00,VWS V13.01,2012-01-22 02:42:00,
2012-01-21 20:47:00,36.7,29.8,29.98,NE,35,2.7,4.0,76,0.00,,,0.00,VWS V13.01,2012-01-22 02:47:00,
2012-01-21 20:52:00,36.7,29.8,29.98,NNE,29,2.7,2.7,76,0.00,,,0.00,VWS V13.01,2012-01-22 02:52:00,
2012-01-21 20:57:00,36.9,30.0,29.98,NE,43,3.6,3.6,76,0.00,,,0.00,VWS V13.01,2012-01-22 02:57:00,
2012-01-21 21:02:00,37.0,29.5,29.98,NE,41,3.6,4.0,74,0.00,,,0.00,VWS V13.01,2012-01-22 03:02:00,
2012-01-21 21:07:00,37.2,29.4,29.98,NNE,22,3.6,4.0,73,0.00,,,0.00,VWS V13.01,2012-01-22 03:07:00,
2012-01-21 21:12:00,37.4,29.2,29.98,NNE,33,5.4,5.4,72,0.00,,,0.00,VWS V13.01,2012-01-22 03:12:00,
2012-01-21 21:17:00,37.6,28.7,29.98,ENE,74,5.4,5.4,70,0.00,,,0.00,VWS V13.01,2012-01-22 03:17:00,
2012-01-21 21:22:00,37.8,28.9,29.98,NE,51,3.1,4.0,70,0.00,,,0.00,VWS V13.01,2012-01-22 03:22:00,
2012-01-21 21:27:00,37.9,28.7,29.98,NE,36,5.4,5.4,69,0.00,,,0.00,VWS V13.01,2012-01-22 03:27:00,
2012-01-21 21:32:00,38.1,28.9,29.98,ENE,68,3.1,4.0,69,0.00,,,0.00,VWS V13.01,2012-01-22 03:32:00,
2012-01-21 21:37:00,38.1,28.5,29.98,ENE,58,4.0,5.4,68,0.00,,,0.00,VWS V13.01,2012-01-22 03:37:00,
2012-01-21 21:42:00,38.1,28.5,29.98,ENE,69,5.4,5.4,68,0.00,,,0.00,VWS V13.01,2012-01-22 03:42:00,
2012-01-21 21:47:00,38.1,28.5,29.98,East,79,5.4,5.8,68,0.00,,,0.00,VWS V13.01,2012-01-22 03:47:00,
2012-01-21 21:52:00,38.1,28.1,29.98,ENE,71,5.4,5.4,67,0.00,,,0.00,VWS V13.01,2012-01-22 03:52:00,
2012-01-21 21:57:00,38.1,28.1,29.98,ENE,64,5.8,5.8,67,0.00,,,0.00,VWS V13.01,2012-01-22 03:57:00,
2012-01-21 22:02:00,37.9,28.3,29.95,NE,53,8.7,8.7,68,0.00,,,0.00,VWS V13.01,2012-01-22 04:02:00,
2012-01-21 22:07:00,37.8,27.8,29.95,East,87,11.9,11.9,67,0.00,,,0.00,VWS V13.01,2012-01-22 04:07:00,
2012-01-21 22:12:00,37.8,28.2,29.95,NE,51,4.9,4.9,68,0.00,,,0.00,VWS V13.01,2012-01-22 04:12:00,
2012-01-21 22:17:00,37.6,28.0,29.95,ENE,65,5.8,5.8,68,0.00,,,0.00,VWS V13.01,2012-01-22 04:17:00,
2012-01-21 22:22:00,37.6,28.0,29.95,East,81,5.8,5.8,68,0.00,,,0.00,VWS V13.01,2012-01-22 04:22:00,
2012-01-21 22:27:00,37.6,28.0,29.95,ENE,71,8.1,8.1,68,0.00,,,0.00,VWS V13.01,2012-01-22 04:27:00,
2012-01-21 22:32:00,37.6,28.4,29.95,ESE,106,4.9,4.9,69,0.00,,,0.00,VWS V13.01,2012-01-22 04:32:00,
2012-01-21 22:37:00,37.6,28.4,29.95,NE,39,4.9,4.9,69,0.00,,,0.00,VWS V13.01,2012-01-22 04:37:00,
2012-01-21 22:42:00,37.4,28.2,29.95,NE,46,8.3,8.3,69,0.00,,,0.00,VWS V13.01,2012-01-22 04:42:00,
2012-01-21 22:47:00,37.2,28.4,29.95,NE,50,8.3,11.0,70,0.00,,,0.00,VWS V13.01,2012-01-22 04:47:00,
2012-01-21 22:52:00,37.0,28.5,29.95,ENE,65,6.3,8.3,71,0.00,,,0.00,VWS V13.01,2012-01-22 04:52:00,
2012-01-21 22:57:00,36.9,28.4,29.95,NE,54,8.7,8.7,71,0.00,,,0.00,VWS V13.01,2012-01-22 04:57:00,
2012-01-21 23:00:00,36.9,28.7,29.95,East,84,7.6,8.3,72,0.00,,,0.00,VWS V13.01,2012-01-22 05:00:00,
2012-01-21 23:01:00,36.9,28.7,29.95,ENE,65,10.1,10.1,72,0.00,,,0.00,VWS V13.01,2012-01-22 05:01:00,
2012-01-21 23:06:00,36.7,28.9,29.95,East,87,6.3,7.6,73,0.00,,,0.00,VWS V13.01,2012-01-22 05:06:00,
2012-01-21 23:11:00,36.7,28.9,29.95,ENE,78,5.8,5.8,73,0.00,,,0.00,VWS V13.01,2012-01-22 05:11:00,
2012-01-21 23:16:00,36.7,28.9,29.95,ENE,71,8.7,8.7,73,0.00,,,0.00,VWS V13.01,2012-01-22 05:16:00,
2012-01-21 23:21:00,36.5,29.0,29.95,ENE,64,7.6,7.6,74,0.00,,,0.00,VWS V13.01,2012-01-22 05:21:00,
2012-01-21 23:26:00,36.5,29.0,29.95,East,97,5.4,8.1,74,0.00,,,0.00,VWS V13.01,2012-01-22 05:26:00,
2012-01-21 23:31:00,36.5,29.3,29.95,East,82,5.4,6.3,75,0.00,,,0.00,VWS V13.01,2012-01-22 05:31:00,
2012-01-21 23:36:00,36.3,29.5,29.95,NE,49,5.4,7.6,76,0.00,,,0.00,VWS V13.01,2012-01-22 05:36:00,
2012-01-21 23:41:00,36.1,29.3,29.95,East,82,8.1,8.1,76,0.00,,,0.00,VWS V13.01,2012-01-22 05:41:00,
2012-01-21 23:46:00,36.1,29.3,29.95,ENE,74,4.9,6.3,76,0.00,,,0.00,VWS V13.01,2012-01-22 05:46:00,
2012-01-21 23:51:00,36.0,29.1,29.95,East,80,5.8,7.6,76,0.00,,,0.00,VWS V13.01,2012-01-22 05:51:00,
2012-01-21 23:56:00,36.0,29.5,29.95,ENE,57,4.0,5.4,77,0.00,,,0.00,VWS V13.01,2012-01-22 05:56:00,